Home   Weather   Pécs   Past weeks

Flag for Hungary Past Weather in Pécs, Hungary — Yesterday and Last 2 Weeks

Now
32 °F

Chilly.


Feels Like: 32 °F
Forecast: 33 / 46 °F
Wind: No wind

Location: Pecs / Pogany

Current Time: Feb 20, 2017 at 2:38:43 am

Latest Report: Feb 20, 2017 at 2:00 am


Visibility: N/A

Pressure: 30.29 "Hg

Humidity: 99%

Dew Point: 32 °F

Location of PécsLocation

Past Weather in Pécs — Graph

°F

Pécs Temperature Yesterday

Maximum temperature yesterday: 39 °F (at 3:00 pm)
Minimum temperature yesterday: 34 °F (at 11:00 pm)
Average temperature yesterday: 37 °F

High & Low Weather Summary for the Past Weeks

 TemperatureHumidityPressure
High53 °F (Feb 5, 2:00 pm)100% (Feb 5, 9:00 am)30.69 "Hg (Feb 5, 9:00 am)
Low19 °F (Feb 14, 8:00 am)54% (Feb 15, 3:00 pm)29.69 "Hg (Feb 5, 2:00 am)
Average33 °F88%30.32 "Hg
* Reported Feb 5 1:00 am — Feb 20 1:00 am, Pécs, Weather by CustomWeather, © 2017

Note: Actual official high and low records may vary slightly from our data, if they occured in-between our weather recording intervals... More about our weather records

Advertising

Pécs Weather History for the Previous 24 Hours

Scroll right to see more
 ConditionsComfort  
Time TempWeatherWind HumidityBarometerVisibility
1:00 am
Mon, Feb 20
33 °FChilly.1 mph97%30.28 "HgN/A
12:00 am34 °FChilly.No wind96%30.29 "HgN/A
11:00 pm
Sun, Feb 19
34 °FChilly.2 mph95%30.27 "HgN/A
10:00 pm35 °FChilly.2 mph93%30.29 "HgN/A
9:00 pm35 °FChilly.2 mph93%30.29 "HgN/A
8:00 pm35 °FChilly.3 mph93%30.28 "HgN/A
7:00 pm36 °FChilly.2 mph91%30.29 "HgN/A
6:00 pm35 °FFog.2 mph92%30.28 "Hg2 mi
5:00 pm37 °FFog.2 mph89%30.28 "Hg2 mi
4:00 pm39 °FLow clouds.2 mph86%30.29 "Hg2 mi
3:00 pm39 °FFog.3 mph84%30.30 "Hg2 mi
2:00 pm38 °FFog.2 mph87%30.31 "Hg2 mi
1:00 pm37 °FLow clouds.3 mph93%30.33 "Hg1 mi
12:00 pm38 °FFog.3 mph91%30.33 "Hg1 mi
11:00 am36 °FFog.2 mph94%30.35 "Hg1 mi
10:00 am38 °FPartly sunny.1 mph90%30.34 "Hg1 mi
9:00 am36 °FFog.No wind96%30.34 "Hg1 mi
8:00 am35 °FFog.No wind96%30.34 "Hg1 mi
7:00 am35 °FOvercast.No wind96%30.32 "Hg1 mi
6:00 am35 °FChilly.2 mph95%30.32 "HgN/A
5:00 am37 °FChilly.1 mph90%30.32 "HgN/A
4:00 am37 °FChilly.2 mph91%30.32 "HgN/A
3:00 am38 °FChilly.2 mph87%30.32 "HgN/A
2:00 am38 °FChilly.2 mph89%30.32 "HgN/A
Weather by CustomWeather, © 2017

See weather overviewHow to use our weather pages